Location: Aula-Vintri
(58.3875°N, 22.4322°E)
Time: 03:13:15
(UTC+00:00)

Ariane Rocket - Pass Details

Date: 13 October 2019
Orbit: 760 x 770 km, 98.8° (Epoch: 21 November)

Event Time Altitude Azimuth Distance (km) Brightness Sun altitude
Rises 17:34:29 0° 174° (S) 3,232 6.0 -16.8°
Reaches altitude 10° 17:36:49 10° 178° (S) 2,311 5.3 -17.1°
Maximum altitude 17:41:50 58° 257° (WSW) 904 3.6 -17.8°
Drops below altitude 10° 17:46:55 10° 337° (NNW) 2,330 6.0 -18.4°
Sets 17:49:17 0° 342° (NNW) 3,261 6.7 -18.7°
